Content
SEND FEEDBACK

Daily
Averages
Monthly
Summary
United States of America

ROCK HILL, NEW YORK


Home > North America > United States > New York
Elevation: 384 meters     Latitude: 41 35N     Longitude: 074 37W

WEATHER
 
SELECT A DAY
Number of Records: 453,147;   Date Range: 1/1/95 - 11/27/14
 
SHARE

PRINT THIS DATA

[ ← Previous Day ]
WEATHER ALMANAC - 25 AUGUST, 2014
[ Next Day → ]
[ °F ]   °C
Weather ElementAverageHighLow
Temperature18.4 °C27 °C (2:35 pm) (3:35 pm)
Dewpoint13.7 °C17 °C (12:15 am) (7:00 pm)
Humidity77.3 %100 % (12:15 am)45 % (4:35 pm)
Barometer1023.4 hPa1024.7 hPa (9:55 am)1022.4 hPa (7:15 am)
Wind Speed3.4 km/h13 km/h (6:55 am)
Weather ElementAverage
Visibility15.9 km
Wind DirectionESE (108.8 °)

Weather ElementTotal
Precipitation---
Heating Degree Days13.7 (Base 18.3)
Averaged from 68 records on 25 August, 2014
WEATHER CONDITIONS BREAKOUT
WIND DIRECTION BREAKOUT
WEATHER BY HOUR - 25 AUGUST, 2014
[ °F ]   °C
Local TimeTemperatureDewpointHumidityBarometerVisibilityWind DirectionWind SpeedGust SpeedPrecipitationEventsConditions
12:15 AM14 °C14 °C100 %1023.4 hPa16.1 kmCalmClear
12:35 AM14 °C13 °C94 %1023.4 hPa16.1 kmCalmClear
12:55 AM13 °C12 °C94 %1023 hPa16.1 kmNorth (10°)5.6 km/hClear
1:15 AM13 °C12 °C94 %1023 hPa16.1 kmCalmClear
1:35 AM13 °C12 °C94 %1023 hPa16.1 kmCalmClear
1:55 AM13 °C13 °C100 %1023 hPa16.1 kmNorth (350°)5.6 km/hClear
2:15 AM13 °C13 °C100 %1023 hPa16.1 kmCalmClear
2:35 AM13 °C12 °C94 %1023 hPa16.1 kmNorth (10°)5.6 km/hClear
2:55 AM13 °C12 °C94 %1023 hPa16.1 kmNorth (350°)5.6 km/hClear
3:15 AM13 °C12 °C94 %1023 hPa16.1 kmCalmClear
3:35 AM13 °C12 °C94 %1023 hPa16.1 kmCalmClear
3:55 AM12 °C12 °C100 %1023 hPa16.1 kmCalmClear
4:15 AM12 °C11 °C94 %1023 hPa16.1 kmCalmClear
4:35 AM12 °C12 °C100 %1023.4 hPa16.1 kmCalmClear
5:15 AM11 °C10 °C94 %1023.4 hPa16.1 kmNNW (340°)5.6 km/hClear
5:35 AM12 °C11 °C94 %1023.4 hPa16.1 kmNorth (350°)5.6 km/hClear
5:55 AM12 °C12 °C100 %1023.7 hPa16.1 kmCalmClear
6:15 AM11 °C10 °C94 %1023.7 hPa16.1 kmNorth (360°)5.6 km/hClear
6:35 AM11 °C10 °C94 %1023.7 hPa16.1 kmNorth (10°)5.6 km/hClear
6:55 AM12 °C11 °C94 %1023.7 hPa16.1 kmNNE (20°)5.6 km/hClear
7:15 AM12 °C11 °C94 %1023.7 hPa16.1 kmCalmClear
7:35 AM13 °C13 °C100 %1024 hPa16.1 kmCalmClear
8:15 AM15 °C14 °C94 %1024.4 hPa16.1 kmCalmClear
8:35 AM16 °C14 °C88 %1024 hPa16.1 kmCalmClear
8:55 AM18 °C16 °C88 %1024 hPa16.1 kmCalmClear
9:15 AM19 °C16 °C83 %1024.4 hPa16.1 kmCalmClear
9:35 AM19 °C16 °C83 %1024.4 hPa16.1 kmCalmClear
9:55 AM21 °C16 °C73 %1024.7 hPa16.1 kmCalmClear
10:35 AM23 °C14 °C57 %1024.7 hPa16.1 kmCalmClear
10:55 AM23 °C14 °C57 %1024.7 hPa16.1 kmCalmClear
11:15 AM23 °C14 °C57 %1024.7 hPa16.1 kmCalmClear
11:35 AM24 °C14 °C53 %1024.4 hPa16.1 kmSSW (210°)7.4 km/hClear
11:55 AM24 °C14 °C53 %1024.4 hPa16.1 kmSSE (150°)7.4 km/hClear
12:15 PM25 °C14 °C50 %1024.4 hPa14.5 kmCalmClear
12:35 PM24 °C14 °C53 %1024 hPa16.1 kmWest (260°)5.6 km/hClear
12:55 PM25 °C16 °C57 %1024 hPa14.5 kmESE (120°)5.6 km/hClear
1:15 PM25 °C16 °C57 %1023.7 hPa16.1 kmSouth (180°)9.3 km/hPartly Cloudy
1:35 PM26 °C16 °C54 %1023.7 hPa16.1 kmNNE (20°)11.1 km/hOvercast
1:55 PM26 °C15 °C51 %1023.7 hPa16.1 kmNorth (350°)7.4 km/hMostly Cloudy
2:15 PM26 °C14 °C47 %1023.4 hPa16.1 kmNW (320°)7.4 km/hPartly Cloudy
2:35 PM26 °C14 °C47 %1023.4 hPa16.1 kmWest (280°)9.3 km/hClear
2:55 PM26 °C15 °C51 %1023 hPa16.1 kmCalmClear
3:15 PM26 °C15 °C51 %1023 hPa16.1 kmWSW (250°)5.6 km/hClear
3:35 PM-17.8 °C-17.8 °C1022.7 hPa16.1 kmWest (280°)5.6 km/hClear
3:55 PM26 °C15 °C51 %1022.7 hPa16.1 kmSW (230°)9.3 km/hClear
4:15 PM27 °C15 °C48 %1022.7 hPa16.1 kmSouth (190°)7.4 km/hClear
4:35 PM27 °C14 °C45 %1022.7 hPa16.1 kmSouth (180°)5.6 km/hClear
4:55 PM26 °C15 °C51 %1022.4 hPa16.1 kmSW (230°)11.1 km/hClear
5:15 PM26 °C15 °C51 %1022.4 hPa16.1 kmWSW (250°)9.3 km/hPartly Cloudy
5:35 PM26 °C15 °C51 %1022.4 hPa16.1 kmWest (270°)13 km/hPartly Cloudy
5:55 PM26 °C15 °C51 %1022.4 hPa16.1 kmWSW (240°)7.4 km/hClear
6:15 PM24 °C15 °C57 %1022.7 hPa16.1 kmWest (260°)7.4 km/hClear
6:35 PM23 °C16 °C65 %1022.7 hPa16.1 kmCalmClear
6:55 PM23 °C16 °C65 %1022.7 hPa16.1 kmCalmClear
7:15 PM22 °C16 °C69 %1022.7 hPa11.3 kmWest (280°)5.6 km/hClear
7:35 PM22 °C16 °C69 %1022.7 hPa16.1 kmCalmClear
7:55 PM21 °C16 °C73 %1022.4 hPa16.1 kmCalmClear
8:15 PM21 °C17 °C78 %1022.7 hPa16.1 kmNNW (330°)5.6 km/hClear
8:35 PM19 °C17 °C88 %1022.7 hPa16.1 kmCalmClear
8:55 PM19 °C17 °C88 %1022.7 hPa16.1 kmCalmClear
9:15 PM19 °C17 °C88 %1022.7 hPa16.1 kmCalmClear
9:35 PM18 °C17 °C94 %1023 hPa16.1 kmCalmClear
9:55 PM18 °C17 °C94 %1022.7 hPa16.1 kmCalmClear
10:15 PM17 °C16 °C94 %1023 hPa16.1 kmCalmClear
10:35 PM17 °C17 °C100 %1022.7 hPa16.1 kmCalmClear
11:15 PM16 °C16 °C100 %1022.7 hPa16.1 kmNorth (10°)7.4 km/hClear
11:35 PM16 °C15 °C94 %1023 hPa16.1 kmNorth (360°)5.6 km/hClear
11:55 PM16 °C16 °C100 %1023 hPa16.1 kmNorth (350°)5.6 km/hClear
Hourly data recorded from KMSV, located 0 kilometers away from Rock Hill, New York







STORIES FROM OUR PARTNERS